DLH1MK EDDS-EDDM

Flight info

Callsign DLH1MK
Flight time 0h 28m
Altitude 17000
Route ABTAL4B/25 ABTAL L173 RIXED Y161 RIDAR Z98 WLD T104 ROKIL ROKIL1B
Aircraft A20N/M-SDE2E3FGHIRWXY/LB1

Departure

Time 2026-05-07 16:04
Airport Stuttgart Airport (EDDS)

Arrival

Time 2026-05-07 16:32
Airport Munich Airport (EDDM)
Time Latitude Longitude Altitude Speed Heading
2026-05-07 15:44 48.68794 9.19683 1299 ft 0 kts 165°
2026-05-07 15:57 48.68776 9.19691 1299 ft 8 kts 163°
2026-05-07 15:57 48.68747 9.19793 1295 ft 17 kts 64°
2026-05-07 15:58 48.68760 9.19849 1294 ft 0 kts 76°
2026-05-07 15:59 48.68760 9.19850 1294 ft 0 kts 76°
2026-05-07 15:59 48.68772 9.19892 1294 ft 8 kts 56°
2026-05-07 16:00 48.68831 9.20009 1292 ft 20 kts 62°
2026-05-07 16:00 48.68879 9.20246 1285 ft 27 kts 75°
2026-05-07 16:00 48.68936 9.20542 1276 ft 30 kts 73°
2026-05-07 16:00 48.68997 9.20867 1268 ft 33 kts 74°
2026-05-07 16:01 48.69066 9.21226 1256 ft 38 kts 72°
2026-05-07 16:01 48.69142 9.21630 1244 ft 41 kts 74°
2026-05-07 16:01 48.69225 9.22066 1232 ft 43 kts 73°
2026-05-07 16:01 48.69307 9.22504 1224 ft 42 kts 73°
2026-05-07 16:02 48.69386 9.22916 1219 ft 40 kts 73°
2026-05-07 16:02 48.69461 9.23314 1212 ft 38 kts 73°
2026-05-07 16:02 48.69536 9.23710 1199 ft 39 kts 74°
2026-05-07 16:02 48.69602 9.24070 1189 ft 29 kts 75°
2026-05-07 16:03 48.69518 9.24301 1184 ft 26 kts 149°
2026-05-07 16:03 48.69370 9.24217 1184 ft 37 kts 252°
2026-05-07 16:03 48.69232 9.23484 1207 ft 105 kts 253°
2026-05-07 16:03 48.68971 9.22115 1231 ft 162 kts 255°
2026-05-07 16:04 48.68639 9.20398 1657 ft 175 kts 255°
2026-05-07 16:04 48.68299 9.18644 2350 ft 177 kts 256°
2026-05-07 16:04 48.67973 9.16863 3046 ft 180 kts 257°
2026-05-07 16:04 48.67624 9.14989 3612 ft 192 kts 256°
2026-05-07 16:05 48.66900 9.13253 4064 ft 212 kts 211°
2026-05-07 16:05 48.65426 9.12829 4583 ft 231 kts 167°
2026-05-07 16:05 48.64030 9.14061 5177 ft 244 kts 127°
2026-05-07 16:05 48.63328 9.16415 5780 ft 257 kts 103°
2026-05-07 16:06 48.62939 9.19113 6336 ft 274 kts 101°
2026-05-07 16:06 48.62516 9.21984 7082 ft 283 kts 103°
2026-05-07 16:06 48.62149 9.24886 7854 ft 290 kts 91°
2026-05-07 16:06 48.62383 9.27930 8693 ft 292 kts 71°
2026-05-07 16:07 48.63131 9.30773 9503 ft 296 kts 65°
2026-05-07 16:07 48.63945 9.33600 10242 ft 302 kts 65°
2026-05-07 16:07 48.64803 9.36558 10801 ft 315 kts 65°
2026-05-07 16:07 48.65699 9.39674 11193 ft 333 kts 65°
2026-05-07 16:08 48.66642 9.42981 11540 ft 351 kts 65°
2026-05-07 16:08 48.67627 9.46461 11863 ft 369 kts 65°
2026-05-07 16:08 48.68652 9.50102 12173 ft 386 kts 65°
2026-05-07 16:08 48.69718 9.53897 12667 ft 396 kts 65°
2026-05-07 16:09 48.70792 9.57734 13365 ft 399 kts 65°
2026-05-07 16:09 48.71867 9.61583 14062 ft 401 kts 65°
2026-05-07 16:09 48.72961 9.65506 14701 ft 405 kts 66°
2026-05-07 16:09 48.74059 9.69445 15304 ft 410 kts 66°
2026-05-07 16:10 48.75158 9.73393 15888 ft 414 kts 66°
2026-05-07 16:10 48.76277 9.77423 16468 ft 418 kts 66°
2026-05-07 16:10 48.77403 9.81479 16901 ft 421 kts 66°
2026-05-07 16:10 48.78529 9.85549 17008 ft 421 kts 66°
2026-05-07 16:11 48.79662 9.89646 17022 ft 420 kts 66°
2026-05-07 16:11 48.80786 9.93725 17019 ft 421 kts 66°
2026-05-07 16:11 48.81892 9.97803 17016 ft 421 kts 69°
2026-05-07 16:11 48.82447 10.02148 16999 ft 423 kts 90°
2026-05-07 16:12 48.81913 10.06512 17019 ft 424 kts 109°
2026-05-07 16:12 48.80841 10.10694 17024 ft 425 kts 112°
2026-05-07 16:12 48.79684 10.14887 17018 ft 439 kts 112°
2026-05-07 16:12 48.78543 10.19171 17008 ft 446 kts 111°
2026-05-07 16:13 48.77428 10.23550 17007 ft 447 kts 111°
2026-05-07 16:13 48.76340 10.27963 17011 ft 448 kts 110°
2026-05-07 16:13 48.75270 10.32388 17013 ft 448 kts 110°
2026-05-07 16:13 48.74205 10.36840 17012 ft 447 kts 110°
2026-05-07 16:14 48.73165 10.41208 17009 ft 448 kts 110°
2026-05-07 16:14 48.72112 10.45640 17013 ft 447 kts 110°
2026-05-07 16:14 48.71057 10.50079 17010 ft 447 kts 110°
2026-05-07 16:14 48.70009 10.54478 17015 ft 447 kts 109°
2026-05-07 16:15 48.68951 10.58916 17009 ft 447 kts 110°
2026-05-07 16:15 48.67901 10.63307 17010 ft 448 kts 110°
2026-05-07 16:15 48.66824 10.67808 17010 ft 453 kts 110°
2026-05-07 16:15 48.65747 10.72294 17001 ft 454 kts 110°
2026-05-07 16:16 48.64671 10.76768 16999 ft 454 kts 110°
2026-05-07 16:16 48.63603 10.81204 17009 ft 454 kts 110°
2026-05-07 16:16 48.62526 10.85669 17016 ft 455 kts 110°
2026-05-07 16:16 48.61444 10.90144 17025 ft 454 kts 110°
2026-05-07 16:17 48.60360 10.94617 17027 ft 454 kts 110°
2026-05-07 16:17 48.59275 10.99083 17030 ft 454 kts 110°
2026-05-07 16:17 48.58183 11.03572 16803 ft 454 kts 110°
2026-05-07 16:17 48.57106 11.07987 16276 ft 446 kts 110°
2026-05-07 16:18 48.56042 11.12346 15718 ft 438 kts 110°
2026-05-07 16:18 48.55000 11.16603 15160 ft 431 kts 110°
2026-05-07 16:18 48.53985 11.20743 14612 ft 424 kts 110°
2026-05-07 16:18 48.52968 11.24883 14060 ft 418 kts 110°
2026-05-07 16:19 48.51963 11.28971 13593 ft 410 kts 110°
2026-05-07 16:19 48.50992 11.32916 13144 ft 403 kts 110°
2026-05-07 16:19 48.50027 11.36832 12693 ft 396 kts 110°
2026-05-07 16:19 48.49081 11.40657 12242 ft 383 kts 111°
2026-05-07 16:20 48.48174 11.44326 11793 ft 369 kts 111°
2026-05-07 16:20 48.47288 11.47896 11333 ft 357 kts 111°
2026-05-07 16:20 48.46430 11.51344 10874 ft 346 kts 111°
2026-05-07 16:20 48.45604 11.54660 10419 ft 333 kts 111°
2026-05-07 16:21 48.44812 11.57845 9970 ft 320 kts 110°
2026-05-07 16:21 48.44218 11.60999 9511 ft 310 kts 101°
2026-05-07 16:21 48.43955 11.64159 9061 ft 305 kts 92°
2026-05-07 16:21 48.44013 11.67313 8616 ft 304 kts 84°
2026-05-07 16:22 48.44245 11.70462 8194 ft 302 kts 83°
2026-05-07 16:22 48.44505 11.73565 7954 ft 295 kts 82°
2026-05-07 16:22 48.44759 11.76622 7547 ft 296 kts 83°
2026-05-07 16:22 48.45007 11.79686 7126 ft 296 kts 83°
2026-05-07 16:23 48.45247 11.82739 6751 ft 291 kts 83°
2026-05-07 16:23 48.45474 11.85674 6490 ft 276 kts 83°
2026-05-07 16:23 48.45690 11.88485 6239 ft 268 kts 83°
2026-05-07 16:23 48.45899 11.91236 5993 ft 263 kts 83°
2026-05-07 16:24 48.46103 11.93939 5746 ft 258 kts 83°
2026-05-07 16:24 48.46304 11.96610 5500 ft 254 kts 82°
2026-05-07 16:24 48.46501 11.99219 5250 ft 251 kts 82°
2026-05-07 16:24 48.46694 12.01790 5025 ft 246 kts 82°
2026-05-07 16:25 48.46884 12.04330 4993 ft 245 kts 82°
2026-05-07 16:25 48.47074 12.06874 4993 ft 245 kts 82°
2026-05-07 16:25 48.47247 12.09454 4988 ft 246 kts 88°
2026-05-07 16:25 48.46901 12.11929 4976 ft 246 kts 119°
2026-05-07 16:26 48.45791 12.13814 4810 ft 240 kts 150°
2026-05-07 16:26 48.44259 12.14663 4639 ft 229 kts 170°
2026-05-07 16:26 48.42719 12.15072 4463 ft 223 kts 173°
2026-05-07 16:26 48.41710 12.15291 4343 ft 219 kts 174°
2026-05-07 16:27 48.39746 12.15206 4081 ft 212 kts 207°
2026-05-07 16:27 48.38647 12.13835 3991 ft 206 kts 244°
2026-05-07 16:27 48.38316 12.11797 3994 ft 202 kts 274°
2026-05-07 16:27 48.38439 12.09686 3999 ft 202 kts 275°
2026-05-07 16:28 48.38482 12.07616 3984 ft 189 kts 270°
2026-05-07 16:28 48.38436 12.05689 4039 ft 183 kts 269°
2026-05-07 16:28 48.38352 12.03791 4002 ft 182 kts 267°
2026-05-07 16:28 48.38233 12.01919 3974 ft 180 kts 266°
2026-05-07 16:29 48.38098 12.00108 3792 ft 171 kts 265°
2026-05-07 16:29 48.37962 11.98404 3571 ft 157 kts 265°
2026-05-07 16:29 48.37837 11.96849 3348 ft 143 kts 266°
2026-05-07 16:29 48.37720 11.95390 3160 ft 140 kts 266°
2026-05-07 16:30 48.37606 11.93929 2994 ft 141 kts 266°
2026-05-07 16:30 48.37493 11.92470 2814 ft 141 kts 266°
2026-05-07 16:30 48.37378 11.91015 2627 ft 141 kts 265°
2026-05-07 16:30 48.37261 11.89544 2444 ft 141 kts 266°
2026-05-07 16:31 48.37148 11.88064 2265 ft 141 kts 265°
2026-05-07 16:31 48.37040 11.86622 2063 ft 140 kts 266°
2026-05-07 16:31 48.36924 11.85142 1867 ft 144 kts 266°
2026-05-07 16:31 48.36802 11.83664 1704 ft 140 kts 265°
2026-05-07 16:32 48.36695 11.82203 1518 ft 142 kts 265°
2026-05-07 16:32 48.36589 11.80775 1460 ft 129 kts 265°
2026-05-07 16:32 48.36502 11.79665 1465 ft 81 kts 263°
2026-05-07 16:32 48.36443 11.79058 1468 ft 42 kts 250°
2026-05-07 16:33 48.36314 11.78732 1471 ft 31 kts 234°
2026-05-07 16:33 48.36250 11.78603 1471 ft 7 kts 234°
2026-05-07 16:33 48.36242 11.78586 1472 ft 0 kts 233°
2026-05-07 16:33 48.36219 11.78542 1472 ft 14 kts 230°
2026-05-07 16:34 48.36075 11.78496 1473 ft 26 kts 163°
2026-05-07 16:34 48.36047 11.78701 1473 ft 21 kts 81°
2026-05-07 16:34 48.36063 11.78922 1472 ft 21 kts 85°
2026-05-07 16:34 48.36081 11.79168 1470 ft 22 kts 84°
2026-05-07 16:35 48.36054 11.79321 1470 ft 13 kts 165°
2026-05-07 16:35 48.35986 11.79334 1470 ft 5 kts 173°
2026-05-07 16:35 48.35947 11.79344 1470 ft 6 kts 165°
2026-05-07 16:35 48.35896 11.79406 1470 ft 16 kts 122°
2026-05-07 16:36 48.35755 11.79470 1471 ft 28 kts 173°
2026-05-07 16:36 48.35533 11.79508 1473 ft 28 kts 174°
2026-05-07 16:36 48.35410 11.79528 1474 ft 11 kts 176°
2026-05-07 16:36 48.35328 11.79542 1474 ft 8 kts 173°
2026-05-07 16:37 48.35306 11.79568 1474 ft 7 kts 96°
2026-05-07 16:37 48.35311 11.79655 1474 ft 9 kts 83°
2026-05-07 16:37 48.35319 11.79764 1473 ft 11 kts 83°
2026-05-07 16:37 48.35320 11.79782 1473 ft 0 kts 84°